Colorado Springs, CO

8:53 PM MST on January 18, 2017 (GMT -0700)
City Of Colorado Springs Municipal

Weather History for KCOS - May, 2013

Change the Weather History Date:

Tuesday, May 28, 2013

  Actual Average Record
Temperature  
Mean Temperature 64 °F 59 °F  
Max Temperature 79 °F 73 °F 91 °F (1974)
Min Temperature 49 °F 46 °F 31 °F (1947)
Degree Days  
Heating Degree Days 1 6  
Month to date heating degree days 271 273  
Since 1 July heating degree days 6090 6195  
Cooling Degree Days 0 1  
Month to date cooling degree days 22 4  
Year to date cooling degree days 22 5  
Growing Degree Days 14 (Base 50)    
Moisture  
Dew Point 38 °F    
Average Humidity 43    
Maximum Humidity 72    
Minimum Humidity 14    
Precipitation  
Precipitation 0.00 in 0.07 in 1.07 in (1946)
Month to date precipitation 1.14 1.78  
Year to date precipitation 2.73 4.86  
Snow  
Snow 0.00 in 0.00 in T in (2001)
Month to date snowfall 1.8 0.7  
Since 1 July snowfall 29.6 37.7  
Snow Depth 0.00 in    
Sea Level Pressure  
Sea Level Pressure 29.57 in    
Wind  
Wind Speed 7 mph (SE)    
Max Wind Speed 23 mph    
Max Gust Speed 26 mph    
Visibility 10 miles    
Events      
T = Trace of Precipitation, MM = Missing Value Source: NWS Daily Summary

Daily Weather History Graph

Daily Weather History Graph

Search for Another Location

Airport or City:

Trip Planner

Search our weather history database for the weather conditions in past years. The results will help you decide how hot, cold, wet, or windy it might be!

Date:

Astronomy

May. 28, 2013 Rise Set
Actual Time 5:37 AM MDT 8:15 PM MDT
Civil Twilight 5:06 AM MDT 8:46 PM MDT
Nautical Twilight 4:27 AM MDT 9:25 PM MDT
Astronomical Twilight 3:44 AM MDT 10:09 PM MDT
Moon 11:42 PM MDT (5/28) 9:27 AM MDT (5/28)
Length of Visible Light 15h 40m
Length of Day
14h 38m
Waning Gibbous, 82% of the Moon is Illuminated
May 28
Waning Gibbous
May 31
Last Quarter
Jun 8
New
Jun 16
First Quarter
Jun 23
Full

Hourly Weather History & Observations

Time (MDT) Temp. Dew Point Humidity Pressure Visibility Wind Dir Wind Speed Gust Speed Precip Events Conditions
12:54 AM 57.0 °F 37.9 °F 49% 29.65 in 10.0 mi NE 6.9 mph - N/A   Partly Cloudy
1:54 AM 54.0 °F 39.0 °F 57% 29.66 in 10.0 mi North 3.5 mph - N/A   Partly Cloudy
2:54 AM 52.0 °F 39.0 °F 61% 29.68 in 10.0 mi Calm Calm - N/A   Partly Cloudy
3:54 AM 53.1 °F 41.0 °F 64% 29.68 in 10.0 mi Calm Calm - N/A   Clear
4:54 AM 51.1 °F 41.0 °F 68% 29.68 in 10.0 mi Calm Calm - N/A   Clear
5:54 AM 53.1 °F 43.0 °F 69% 29.67 in 10.0 mi Calm Calm - N/A   Partly Cloudy
6:54 AM 55.0 °F 44.1 °F 67% 29.66 in 10.0 mi East 3.5 mph - N/A   Scattered Clouds
7:54 AM 57.9 °F 48.0 °F 70% 29.65 in 10.0 mi SE 5.8 mph - N/A   Scattered Clouds
8:54 AM 62.1 °F 51.1 °F 67% 29.65 in 10.0 mi SSE 10.4 mph - N/A   Scattered Clouds
9:54 AM 66.0 °F 50.0 °F 56% 29.65 in 10.0 mi SSE 9.2 mph - N/A   Scattered Clouds
10:54 AM 68.0 °F 45.0 °F 43% 29.64 in 10.0 mi ESE 8.1 mph 17.3 mph N/A   Mostly Cloudy
11:54 AM 70.0 °F 43.0 °F 38% 29.62 in 10.0 mi South 9.2 mph 21.9 mph N/A   Mostly Cloudy
12:54 PM 73.0 °F 37.0 °F 27% 29.58 in 10.0 mi SSE 12.7 mph 24.2 mph N/A   Mostly Cloudy
1:54 PM 75.0 °F 33.1 °F 22% 29.56 in 10.0 mi SSE 10.4 mph 18.4 mph N/A   Mostly Cloudy
2:54 PM 77.0 °F 30.9 °F 19% 29.53 in 10.0 mi SE 9.2 mph 18.4 mph N/A   Mostly Cloudy
3:47 PM 77.0 °F 33.8 °F 21% 29.73 in 10.0 mi SSE 12.7 mph 25.3 mph N/A   Mostly Cloudy
3:54 PM 75.9 °F 33.1 °F 21% 29.50 in 10.0 mi SSE 9.2 mph 19.6 mph N/A   Mostly Cloudy
4:54 PM 77.0 °F 30.9 °F 19% 29.48 in 10.0 mi South 5.8 mph 16.1 mph N/A   Mostly Cloudy
5:54 PM 77.0 °F 28.0 °F 17% 29.44 in 10.0 mi SSE 4.6 mph - N/A   Mostly Cloudy
6:54 PM 77.0 °F 25.0 °F 15% 29.42 in 10.0 mi South 10.4 mph - N/A   Mostly Cloudy
7:54 PM 73.9 °F 35.1 °F 24% 29.42 in 10.0 mi SE 9.2 mph - N/A   Mostly Cloudy
8:54 PM 69.1 °F 35.1 °F 29% 29.42 in 10.0 mi SE 8.1 mph - N/A   Mostly Cloudy
9:54 PM 66.9 °F 35.1 °F 31% 29.43 in 10.0 mi ENE 10.4 mph - N/A   Mostly Cloudy
10:54 PM 64.0 °F 37.0 °F 37% 29.42 in 10.0 mi NE 4.6 mph - N/A   Mostly Cloudy
11:54 PM 61.0 °F 37.9 °F 42% 29.41 in 10.0 mi NW 8.1 mph - N/A   Mostly Cloudy